THY3169 LTAC-LTFM

Flight info

Callsign THY3169
Flight time 0h 36m
Altitude 28000
Route YAVRU A4 ERSEN
Aircraft A321/M-SDE3FGHIRWY/LB1

Departure

Time 2026-05-05 04:32
Airport Esenboğa International Airport (LTAC)

Arrival

Time 2026-05-05 05:08
Airport İstanbul Airport (LTFM)
Time Latitude Longitude Altitude Speed Heading
2026-05-05 04:31 40.36200 32.80590 12549 ft 375 kts 285°
2026-05-05 04:32 40.36830 32.77236 13170 ft 379 kts 285°
2026-05-05 04:32 40.37464 32.73863 13762 ft 384 kts 286°
2026-05-05 04:32 40.38103 32.70448 14338 ft 387 kts 286°
2026-05-05 04:32 40.38745 32.67008 14922 ft 390 kts 286°
2026-05-05 04:33 40.39387 32.63541 15523 ft 392 kts 286°
2026-05-05 04:33 40.40029 32.60052 16119 ft 394 kts 285°
2026-05-05 04:33 40.40675 32.56555 16750 ft 396 kts 286°
2026-05-05 04:33 40.41330 32.53035 17348 ft 398 kts 286°
2026-05-05 04:34 40.41987 32.49493 17935 ft 401 kts 286°
2026-05-05 04:34 40.42645 32.45923 18486 ft 404 kts 286°
2026-05-05 04:34 40.43306 32.42330 18970 ft 407 kts 286°
2026-05-05 04:34 40.43970 32.38706 19449 ft 410 kts 286°
2026-05-05 04:35 40.44640 32.35056 19921 ft 413 kts 286°
2026-05-05 04:35 40.45313 32.31373 20379 ft 416 kts 286°
2026-05-05 04:35 40.45987 32.27660 20797 ft 420 kts 288°
2026-05-05 04:35 40.46670 32.23909 21204 ft 424 kts 288°
2026-05-05 04:36 40.47394 32.20143 21619 ft 426 kts 292°
2026-05-05 04:36 40.48415 32.16501 22042 ft 426 kts 296°
2026-05-05 04:36 40.49501 32.12861 22466 ft 429 kts 297°
2026-05-05 04:36 40.50594 32.09195 22869 ft 432 kts 297°
2026-05-05 04:37 40.51691 32.05497 23290 ft 436 kts 297°
2026-05-05 04:37 40.52791 32.01772 23664 ft 439 kts 297°
2026-05-05 04:37 40.53880 31.98074 24001 ft 441 kts 298°
2026-05-05 04:37 40.54989 31.94304 24387 ft 442 kts 298°
2026-05-05 04:38 40.56100 31.90528 24765 ft 444 kts 298°
2026-05-05 04:38 40.57216 31.86738 25151 ft 445 kts 298°
2026-05-05 04:38 40.58329 31.82928 25527 ft 447 kts 298°
2026-05-05 04:38 40.59385 31.79067 25876 ft 450 kts 296°
2026-05-05 04:39 40.60378 31.75148 25976 ft 450 kts 295°
2026-05-05 04:39 40.61319 31.71223 25971 ft 448 kts 295°
2026-05-05 04:39 40.62238 31.67310 26005 ft 447 kts 294°
2026-05-05 04:39 40.63159 31.63403 26001 ft 446 kts 295°
2026-05-05 04:40 40.64093 31.59507 26012 ft 446 kts 295°
2026-05-05 04:40 40.65046 31.55616 26006 ft 446 kts 295°
2026-05-05 04:40 40.66005 31.51734 26011 ft 446 kts 295°
2026-05-05 04:40 40.66966 31.47852 26015 ft 446 kts 295°
2026-05-05 04:41 40.67928 31.43958 26018 ft 446 kts 295°
2026-05-05 04:41 40.68885 31.40072 25980 ft 446 kts 295°
2026-05-05 04:41 40.69838 31.36185 25988 ft 446 kts 295°
2026-05-05 04:41 40.70787 31.32298 25994 ft 446 kts 295°
2026-05-05 04:42 40.71721 31.28453 26000 ft 446 kts 295°
2026-05-05 04:42 40.72663 31.24564 26004 ft 445 kts 295°
2026-05-05 04:42 40.73603 31.20676 26004 ft 445 kts 294°
2026-05-05 04:42 40.74543 31.16790 26002 ft 445 kts 295°
2026-05-05 04:43 40.75485 31.12906 25990 ft 445 kts 294°
2026-05-05 04:43 40.76425 31.09018 25969 ft 444 kts 294°
2026-05-05 04:43 40.77358 31.05143 25993 ft 443 kts 294°
2026-05-05 04:43 40.78292 31.01268 26002 ft 443 kts 294°
2026-05-05 04:44 40.79224 30.97391 26006 ft 443 kts 294°
2026-05-05 04:44 40.80153 30.93517 26000 ft 443 kts 294°
2026-05-05 04:44 40.81082 30.89636 26005 ft 443 kts 294°
2026-05-05 04:44 40.82007 30.85760 26014 ft 443 kts 294°
2026-05-05 04:45 40.82934 30.81883 26007 ft 443 kts 294°
2026-05-05 04:45 40.83859 30.78003 26010 ft 442 kts 294°
2026-05-05 04:45 40.84780 30.74128 26015 ft 442 kts 294°
2026-05-05 04:45 40.85698 30.70246 26008 ft 443 kts 294°
2026-05-05 04:46 40.86446 30.66275 25967 ft 450 kts 286°
2026-05-05 04:46 40.86749 30.62124 25715 ft 457 kts 279°
2026-05-05 04:46 40.86883 30.57928 25474 ft 458 kts 278°
2026-05-05 04:46 40.87013 30.53717 25229 ft 459 kts 278°
2026-05-05 04:47 40.87146 30.49503 24963 ft 459 kts 278°
2026-05-05 04:47 40.87279 30.45302 24724 ft 457 kts 278°
2026-05-05 04:47 40.87415 30.41116 24446 ft 454 kts 278°
2026-05-05 04:47 40.87549 30.36953 23796 ft 452 kts 278°
2026-05-05 04:48 40.87685 30.32812 23083 ft 450 kts 278°
2026-05-05 04:48 40.87814 30.28702 22449 ft 445 kts 278°
2026-05-05 04:48 40.87940 30.24633 21810 ft 441 kts 278°
2026-05-05 04:48 40.88066 30.20603 21184 ft 436 kts 277°
2026-05-05 04:49 40.88188 30.16620 20578 ft 432 kts 277°
2026-05-05 04:49 40.88310 30.12670 19951 ft 429 kts 277°
2026-05-05 04:49 40.88429 30.08753 19395 ft 425 kts 277°
2026-05-05 04:49 40.88544 30.04917 18838 ft 421 kts 276°
2026-05-05 04:50 40.88658 30.01011 18286 ft 418 kts 276°
2026-05-05 04:50 40.88769 29.97236 17702 ft 415 kts 276°
2026-05-05 04:50 40.88878 29.93448 17181 ft 410 kts 276°
2026-05-05 04:50 40.88984 29.89694 16658 ft 407 kts 276°
2026-05-05 04:51 40.89087 29.85977 16135 ft 403 kts 276°
2026-05-05 04:51 40.89187 29.82290 15589 ft 399 kts 276°
2026-05-05 04:51 40.89285 29.78644 15077 ft 395 kts 276°
2026-05-05 04:51 40.89382 29.75029 14533 ft 392 kts 275°
2026-05-05 04:52 40.89477 29.71439 13992 ft 389 kts 275°
2026-05-05 04:52 40.89572 29.67877 13388 ft 387 kts 275°
2026-05-05 04:52 40.89667 29.64346 12833 ft 382 kts 275°
2026-05-05 04:52 40.89759 29.60849 12275 ft 379 kts 275°
2026-05-05 04:53 40.89847 29.57384 11724 ft 375 kts 275°
2026-05-05 04:53 40.89936 29.53952 11145 ft 372 kts 275°
2026-05-05 04:53 40.90023 29.50564 10829 ft 362 kts 275°
2026-05-05 04:53 40.90102 29.47311 10703 ft 346 kts 275°
2026-05-05 04:54 40.90176 29.44196 10580 ft 332 kts 275°
2026-05-05 04:54 40.90246 29.41204 10456 ft 319 kts 275°
2026-05-05 04:54 40.90312 29.38328 10335 ft 307 kts 275°
2026-05-05 04:54 40.90375 29.35553 10166 ft 298 kts 275°
2026-05-05 04:55 40.90439 29.32851 10012 ft 290 kts 275°
2026-05-05 04:55 40.90506 29.30177 9943 ft 292 kts 275°
2026-05-05 04:55 40.90572 29.27514 9482 ft 295 kts 275°
2026-05-05 04:55 40.90636 29.24815 9060 ft 294 kts 275°
2026-05-05 04:56 40.90693 29.22137 8722 ft 289 kts 276°
2026-05-05 04:56 40.90750 29.19485 8112 ft 288 kts 276°
2026-05-05 04:56 40.90808 29.16848 7612 ft 285 kts 277°
2026-05-05 04:56 40.90865 29.14247 7076 ft 282 kts 277°
2026-05-05 04:57 40.90920 29.11677 6606 ft 278 kts 277°
2026-05-05 04:57 40.90972 29.09139 6137 ft 275 kts 277°
2026-05-05 04:57 40.91023 29.06630 5799 ft 269 kts 277°
2026-05-05 04:57 40.91071 29.04191 5666 ft 261 kts 277°
2026-05-05 04:58 40.91116 29.01840 5533 ft 251 kts 278°
2026-05-05 04:58 40.91247 28.99595 5401 ft 240 kts 283°
2026-05-05 04:58 40.91439 28.97422 5167 ft 237 kts 283°
2026-05-05 04:58 40.91633 28.95272 4860 ft 235 kts 282°
2026-05-05 04:59 40.91828 28.93128 4560 ft 235 kts 282°
2026-05-05 04:59 40.92019 28.91011 4256 ft 234 kts 282°
2026-05-05 04:59 40.92207 28.88890 4040 ft 232 kts 282°
2026-05-05 04:59 40.92394 28.86765 4009 ft 234 kts 281°
2026-05-05 05:00 40.92582 28.84626 4008 ft 234 kts 281°
2026-05-05 05:00 40.92767 28.82495 4006 ft 233 kts 282°
2026-05-05 05:00 40.93009 28.81127 4006 ft 229 kts 296°
2026-05-05 05:00 40.93799 28.79342 4009 ft 223 kts 316°
2026-05-05 05:01 40.94970 28.78048 4012 ft 218 kts 333°
2026-05-05 05:01 40.96277 28.77035 4036 ft 218 kts 333°
2026-05-05 05:01 40.97621 28.76319 4002 ft 202 kts 351°
2026-05-05 05:01 40.99010 28.76191 4009 ft 200 kts
2026-05-05 05:02 41.00402 28.76170 4010 ft 200 kts
2026-05-05 05:02 41.01790 28.76143 4012 ft 199 kts
2026-05-05 05:02 41.03176 28.76113 4010 ft 199 kts
2026-05-05 05:02 41.04564 28.76082 4011 ft 199 kts
2026-05-05 05:03 41.05950 28.76054 4008 ft 199 kts
2026-05-05 05:03 41.07338 28.76027 3964 ft 200 kts
2026-05-05 05:03 41.08723 28.76001 3782 ft 196 kts
2026-05-05 05:03 41.10046 28.75976 3536 ft 184 kts
2026-05-05 05:04 41.11307 28.75952 3284 ft 181 kts
2026-05-05 05:04 41.12563 28.75928 3042 ft 181 kts
2026-05-05 05:04 41.13818 28.75905 2792 ft 177 kts 359°
2026-05-05 05:04 41.15019 28.75882 2555 ft 167 kts 359°
2026-05-05 05:05 41.16157 28.75861 2356 ft 162 kts 359°
2026-05-05 05:05 41.17268 28.75840 2133 ft 158 kts 358°
2026-05-05 05:05 41.18360 28.75819 1914 ft 156 kts 358°
2026-05-05 05:05 41.19435 28.75799 1713 ft 151 kts 358°
2026-05-05 05:06 41.20451 28.75780 1485 ft 143 kts 358°
2026-05-05 05:06 41.21438 28.75761 1297 ft 141 kts 358°
2026-05-05 05:06 41.22410 28.75744 1102 ft 139 kts 358°
2026-05-05 05:06 41.23379 28.75728 915 ft 139 kts 357°
2026-05-05 05:07 41.24352 28.75704 748 ft 140 kts 357°
2026-05-05 05:07 41.25326 28.75677 546 ft 139 kts 357°
2026-05-05 05:07 41.26295 28.75664 401 ft 139 kts 357°
2026-05-05 05:07 41.27206 28.75647 331 ft 114 kts 360°
2026-05-05 05:08 41.27827 28.75635 331 ft 63 kts 359°
2026-05-05 05:08 41.28064 28.75554 333 ft 31 kts 329°
2026-05-05 05:08 41.28162 28.75460 333 ft 15 kts 300°
2026-05-05 05:08 41.28120 28.75350 333 ft 15 kts 195°
2026-05-05 05:09 41.28011 28.75351 334 ft 16 kts 179°
2026-05-05 05:09 41.27897 28.75354 333 ft 17 kts 179°
2026-05-05 05:09 41.27775 28.75357 334 ft 18 kts 179°
2026-05-05 05:09 41.27647 28.75359 333 ft 19 kts 179°
2026-05-05 05:10 41.27527 28.75361 330 ft 20 kts 179°
2026-05-05 05:10 41.27422 28.75363 331 ft 12 kts 179°
2026-05-05 05:10 41.27335 28.75365 330 ft 13 kts 179°
2026-05-05 05:10 41.27239 28.75367 332 ft 14 kts 179°
2026-05-05 05:11 41.27135 28.75370 330 ft 16 kts 178°
2026-05-05 05:11 41.27072 28.75309 333 ft 12 kts 265°
2026-05-05 05:11 41.27005 28.75262 332 ft 13 kts 178°
2026-05-05 05:11 41.26912 28.75264 333 ft 14 kts 179°
2026-05-05 05:12 41.26811 28.75265 330 ft 15 kts 179°
2026-05-05 05:12 41.26702 28.75267 332 ft 16 kts 178°
2026-05-05 05:12 41.26585 28.75271 331 ft 17 kts 179°
2026-05-05 05:12 41.26461 28.75273 332 ft 18 kts 179°
2026-05-05 05:13 41.26328 28.75275 333 ft 18 kts 178°
2026-05-05 05:13 41.26249 28.75239 331 ft 12 kts 245°
2026-05-05 05:13 41.26243 28.75119 334 ft 14 kts 269°
2026-05-05 05:13 41.26245 28.75003 334 ft 9 kts 272°
2026-05-05 05:14 41.26229 28.74922 333 ft 10 kts 251°
2026-05-05 05:14 41.26214 28.74863 333 ft 0 kts 251°
2026-05-05 05:14 41.26211 28.74853 333 ft 2 kts 251°
2026-05-05 05:14 41.26210 28.74850 334 ft 0 kts 251°